This demonstration page uses our WeatherBlox Daily Observations layout. Learn more.

Left ArrowRight Arrow

39.12711, -84.51439

Hourly Observations for May 14, 2018

Temp ( °F °C ) Dew Point ( °F °C ) Humidity (%) Winds ( mph kmh ) Pressure ( in mb ) Visibility ( mi km ) Precip ( " mm )
12:53 am 00:53 Clear 71 21.7 67 19.4 87 87 SSW 7 11 29.94 1014 9 14 0.00 0.00
1:53 am 01:53 Clear 69 20.6 67 19.4 93 93 Calm 29.96 1015 8 13 0.00 0.00
2:53 am 02:53 Clear 67 19.4 66 18.9 97 97 Calm 29.97 1015 8 13 0.00 0.00
3:53 am 03:53 Clear 66 18.9 65 18.3 96 96 Calm 29.97 1015 7 11 0.00 0.00
5:19 am 05:19 Clear with Mist and Fog 65 18.3 65 18.3 100 100 Calm 29.97 1015 2 3 0.00 0.00
5:34 am 05:34 Clear with Mist and Fog 64 17.8 64 17.8 100 100 SW 5 7 29.97 1015 3 5 0.00 0.00
5:53 am 05:53 Clear with Mist and Fog 64 17.8 64 17.8 100 100 SW 5 7 29.98 1015 6 10 0.00 0.00
6:53 am 06:53 Sunny with Mist and Fog 65 18.3 65 18.3 100 100 WSW 3 6 29.98 1015 6 10 0.00 0.00
7:53 am 07:53 Sunny 69 20.6 67 19.4 93 93 Calm 29.98 1015 7 11 0.00 0.00
8:53 am 08:53 Sunny 75 23.9 69 20.6 82 82 Calm 30.00 1016 7 11 0.00 0.00
9:53 am 09:53 Sunny 81 27.2 68 20 65 65 WSW 6 9 30.00 1016 10 16 0.00 0.00
10:53 am 10:53 Sunny 83 28.3 67 19.4 59 59 SW 8 13 30.00 1016 10 16 0.00 0.00
11:53 am 11:53 Mostly Sunny 86 30 68 20 55 55 WNW 9 15 30.00 1016 10 16 0.00 0.00
12:53 pm 12:53 Mostly Cloudy 86 30 67 19.4 53 53 W 10 17 29.99 1016 10 16 0.00 0.00
1:53 pm 13:53 Mostly Sunny 88 31.1 66 18.9 48 48 NW 5 7 29.97 1015 10 16 0.00 0.00
2:53 pm 14:53 Mostly Cloudy 84 28.9 68 20 59 59 NNE 12 19 29.94 1014 10 16 0.00 0.00
3:53 pm 15:53 Sunny 88 31.1 70 21.1 55 55 ENE 9 15 29.92 1013 10 16 0.00 0.00
4:53 pm 16:53 Mostly Sunny 89 31.7 69 20.6 52 52 ENE 9 15 29.89 1012 10 16 0.00 0.00
5:53 pm 17:53 Mostly Sunny 88 31.1 68 20 52 52 S 7 11 29.87 1012 10 16 0.00 0.00
6:53 pm 18:53 Mostly Sunny 85 29.4 65 18.3 51 51 SW 12 19 29.86 1011 10 16 0.00 0.00
7:53 pm 19:53 Sunny 83 28.3 66 18.9 57 57 SSW 9 15 29.85 1011 10 16 0.00 0.00
8:53 pm 20:53 Clear 78 25.6 65 18.3 64 64 SW 8 13 29.86 1011 10 16 0.00 0.00
9:53 pm 21:53 Clear 75 23.9 65 18.3 71 71 SSW 9 15 29.88 1012 10 16 0.00 0.00
10:53 pm 22:53 Clear 76 24.4 65 18.3 69 69 SSW 8 13 29.88 1012 10 16 0.00 0.00
11:53 pm 23:53 Clear 74 23.3 65 18.3 74 74 SW 7 11 29.88 1012 10 16 0.00 0.00

Powered by AerisWeather